This demonstration page uses our WeatherBlox Daily Observations layout. Learn more.

Left ArrowRight Arrow

39.51506, -84.39828

Hourly Observations for June 22, 2021

Temp ( °F °C ) Dew Point ( °F °C ) Humidity (%) Winds ( mph kmh ) Pressure ( in mb ) Visibility ( mi km ) Precip ( " mm )
12:15 am 00:15 Cloudy 64 18 64 18 100 100 N N/A 29.87 1011 10 16 N/A
12:35 am 00:35 Partly Cloudy 64 18 64 18 100 100 N N/A 29.87 1011 7 11 N/A
12:55 am 00:55 Clear 63 17 N/A N/A N N/A 29.86 1011 10 16 N/A
1:15 am 01:15 Hazy 63 17 N/A N/A N N/A 29.87 1012 5 8 N/A
1:35 am 01:35 Cloudy with Haze 63 17 N/A N/A N N/A 29.87 1012 5 8 N/A
1:55 am 01:55 Cloudy 63 17 N/A N/A N N/A 29.87 1012 10 16 N/A
2:15 am 02:15 Cloudy 63 17 N/A N/A N 3 6 29.87 1012 10 16 N/A
2:35 am 02:35 Cloudy 63 17 63 17 100 100 NNW 5 7 29.87 1012 10 16 N/A
2:55 am 02:55 Cloudy 61 16.3 56 13.3 83 83 N 10 17 29.88 1012 10 16 N/A
3:15 am 03:15 Cloudy 60 15.8 54 12.3 80 80 N 10 17 29.88 1012 10 16 N/A
3:35 am 03:35 Cloudy 60 15.6 52 11.1 75 75 N 9 15 29.89 1012 10 16 N/A
3:55 am 03:55 Cloudy 60 15.3 53 11.4 78 78 N 5 7 29.89 1012 10 16 N/A
4:15 am 04:15 Cloudy 59 15.1 53 11.5 79 79 N 6 9 29.89 1012 10 16 N/A
4:35 am 04:35 Mostly Cloudy 59 15 51 10.7 76 76 N 8 13 29.90 1012 10 16 N/A
4:55 am 04:55 Cloudy 58 14.7 51 10.5 76 76 N 9 15 29.90 1012 10 16 N/A
5:15 am 05:15 Cloudy 58 14.4 51 10.7 79 79 N 9 15 29.91 1013 10 16 N/A
5:35 am 05:35 Cloudy 57 14 51 10.7 81 81 N 9 15 29.92 1013 10 16 N/A
5:55 am 05:55 Mostly Cloudy 56 13.6 51 10.5 82 82 N 8 13 29.93 1014 10 16 N/A
6:15 am 06:15 Partly Cloudy 56 13.1 51 10.3 83 83 N 7 11 29.93 1014 10 16 N/A
6:35 am 06:35 Sunny 55 12.8 51 10.5 86 86 N 7 11 29.94 1014 10 16 N/A
6:55 am 06:55 Sunny 55 13 51 10.7 86 86 N 6 9 29.94 1014 10 16 N/A
7:15 am 07:15 Sunny 55 13 51 10.8 87 87 N 6 9 29.95 1014 10 16 N/A
7:35 am 07:35 Sunny 56 13.6 52 10.9 84 84 N 7 11 29.96 1015 10 16 N/A
7:55 am 07:55 Sunny 57 14.1 51 10.8 81 81 N 7 11 29.96 1015 10 16 N/A
8:15 am 08:15 Sunny 58 14.6 51 10.7 78 78 NNW 8 13 29.98 1015 10 16 N/A
8:35 am 08:35 Sunny 59 15 51 10.5 75 75 NNE 8 13 29.99 1015 10 16 N/A
8:55 am 08:55 Sunny 60 15.3 49 9.2 67 67 NNE 9 15 30.00 1016 10 16 N/A
9:15 am 09:15 Sunny 60 15.6 48 8.9 65 65 NNE 8 13 30.01 1016 10 16 N/A
9:35 am 09:35 Partly Cloudy 61 16.1 49 9.4 65 65 N 9 15 30.00 1016 10 16 N/A
9:55 am 09:55 Sunny 61 16.2 46 7.9 58 58 N 10 17 30.01 1016 10 16 N/A
10:15 am 10:15 Partly Cloudy 62 16.8 48 9.1 61 61 N 9 15 30.01 1016 10 16 N/A
10:35 am 10:35 Partly Cloudy 63 17 43 6.3 50 50 N 13 20 30.02 1017 10 16 N/A
10:55 am 10:55 Sunny 62 16.4 43 6 50 50 N 12 19 30.03 1017 10 16 N/A
11:15 am 11:15 Sunny 62 16.7 43 5.9 49 49 N 12 19 30.03 1017 10 16 N/A
11:35 am 11:35 Sunny 63 17 42 5.4 47 47 NNW 13 20 30.04 1017 10 16 N/A
11:55 am 11:55 Sunny 63 17.3 43 5.9 47 47 NW 10 17 30.04 1017 10 16 N/A
12:15 pm 12:15 Sunny 64 17.5 41 5.2 44 44 NNW 14 22 30.04 1017 10 16 N/A
12:35 pm 12:35 Sunny 64 17.6 42 5.5 45 45 NW 17 28 30.05 1018 10 16 N/A
12:55 pm 12:55 Sunny 64 17.9 41 4.9 42 42 N 13 20 30.05 1018 10 16 N/A
1:15 pm 13:15 Partly Cloudy 65 18.1 42 5.5 44 44 N 10 17 30.05 1018 10 16 N/A
1:35 pm 13:35 Sunny 65 18.2 41 5 42 42 N 7 11 30.04 1017 10 16 N/A
1:55 pm 13:55 Sunny 65 18.6 43 6.3 45 45 NW 10 17 30.04 1017 10 16 N/A
2:15 pm 14:15 Sunny 65 18.6 41 5 41 41 NNW 6 9 30.04 1017 10 16 N/A
2:35 pm 14:35 Sunny 66 19.1 43 6.2 43 43 N 9 15 30.03 1017 10 16 N/A
2:55 pm 14:55 Sunny 67 19.4 43 6.3 43 43 N 10 17 30.02 1016 10 16 N/A
3:15 pm 15:15 Sunny 67 19.6 40 4.7 38 38 N 15 24 30.03 1017 10 16 N/A
3:35 pm 15:35 Sunny 67 19.6 42 5.8 41 41 NNE 9 15 30.02 1016 10 16 N/A
3:55 pm 15:55 Sunny 68 20 42 5.8 40 40 NNW 10 17 30.01 1016 10 16 N/A
4:15 pm 16:15 Sunny 68 20.2 42 5.6 39 39 N 7 11 30.01 1016 10 16 N/A
4:35 pm 16:35 Partly Cloudy 69 20.5 44 6.4 40 40 WNW 10 17 30.01 1016 10 16 N/A
4:55 pm 16:55 Partly Cloudy 69 20.6 42 5.8 38 38 NNE 8 13 30.01 1016 10 16 N/A
5:15 pm 17:15 Partly Cloudy 69 20.8 45 7 41 41 NNE 8 13 30.01 1016 10 16 N/A
5:35 pm 17:35 Partly Cloudy 69 20.8 43 6.1 39 39 N 7 11 30.01 1016 10 16 N/A
5:55 pm 17:55 Partly Cloudy 68 20.2 41 5.1 37 37 N 5 7 30.01 1016 10 16 N/A
6:15 pm 18:15 Sunny 68 20.2 43 6.1 40 40 N 7 11 30.01 1016 10 16 N/A
6:35 pm 18:35 Partly Cloudy 67 19.3 44 6.4 43 43 NNW 7 11 30.03 1017 10 16 N/A
6:55 pm 18:55 Mostly Cloudy 68 19.9 43 6.2 41 41 NNW 3 6 30.01 1016 10 16 N/A
7:15 pm 19:15 Hazy 68 19.9 43 6.2 41 41 N N/A 30.02 1017 2 3 N/A
7:35 pm 19:35 Sunny 68 19.9 43 6 40 40 N N/A 30.02 1017 10 16 N/A
7:55 pm 19:55 Mostly Cloudy with Haze 68 19.9 42 5.4 39 39 N N/A 30.02 1017 2 2 N/A
8:15 pm 20:15 Hazy 66 19 51 10.4 58 58 N N/A 30.04 1017 5 8 N/A
8:35 pm 20:35 Sunny 64 17.6 55 13 75 75 N N/A 30.04 1017 10 16 N/A
8:55 pm 20:55 Sunny 61 16 56 13.1 83 83 W 3 6 30.04 1017 10 16 N/A
9:15 pm 21:15 Clear 59 15.1 55 12.6 85 85 NW 3 6 30.06 1018 10 16 N/A
9:35 pm 21:35 Clear 58 14.2 55 12.7 91 91 N N/A 30.06 1018 10 16 N/A
9:55 pm 21:55 Clear 56 13.5 55 12.7 95 95 N N/A 30.06 1018 10 16 N/A
10:15 pm 22:15 Clear 56 13.1 55 12.5 96 96 N N/A 30.07 1018 10 16 N/A
10:35 pm 22:35 Clear 55 12.5 54 12.3 99 99 N N/A 30.08 1019 10 16 N/A
10:55 pm 22:55 Clear 54 12.3 53 11.8 97 97 N N/A 30.09 1019 10 16 N/A
11:15 pm 23:15 Clear 53 11.5 52 11.3 99 99 N N/A 30.10 1019 10 16 N/A
11:35 pm 23:35 Clear 53 11.5 52 11.2 98 98 N N/A 30.10 1019 10 16 N/A
11:55 pm 23:55 Clear 53 11.8 52 11 95 95 N N/A 30.09 1019 10 16 N/A

Powered by AerisWeather